Flag for U.S.A. Weather past 2 weeks in Lawrence, Kansas, U.S.A.

30 °F


Feels Like: 21 °F
Forecast: 27 / 30 °F
Wind: 10 mph from North

Location: Lawrence Municipal Airport

Current Time: Nov 27, 2015 at 3:20:51 PM

Latest Report: Nov 27, 2015 at 2:52 PM

Visibility: 10 mi

Pressure: 30.44 "Hg

Humidity: 89%

Dew point: 27 °F

Location of LawrenceLocation

Historic Weather in Lawrence — Graph


Lawrence temperature yesterday

Maximum temperature yesterday: 63 °F (at 7:52 AM)
Minimum temperature yesterday: 33 °F (at 9:52 PM)
Average temperature yesterday: 48 °F

Past Weeks' High & Low Weather Summary

High69 °F (Nov 14, 1:52 PM)100% (Nov 16, 7:03 PM)30.48 "Hg (Nov 16, 7:03 PM)
Low22 °F (Nov 21, 7:52 PM)21% (Nov 12, 3:52 PM)29.34 "Hg (Nov 18, 4:52 AM)
Average47 °F68%30.04 "Hg
* Reported Nov 12 1:52 PM — Nov 27 1:52 PM, Lawrence, Weather by CustomWeather, © 2015

Note: Actual official high and low records may vary slightly from our data, if they occured in-between our weather recording intervals... More about our weather records


Lawrence weather history for previous 24 hours

Time TempWeatherWind HumidityBarometerVisibility
1:52 PM
Fri, Nov 27
30 °FLight snow. Ice fog.12 mph89%30.43 "Hg3 mi
12:52 PM30 °FLight freezing rain. Ice fog.12 mph89%30.46 "Hg5 mi
11:52 AM30 °FLight freezing rain. Overcast.14 mph89%30.46 "Hg7 mi
10:52 AM30 °FLight freezing rain. Ice fog.16 mph89%30.48 "Hg4 mi
9:52 AM30 °FLight freezing rain. Overcast.10 mph89%30.47 "Hg10 mi
8:52 AM30 °FLight freezing rain. Overcast.20 mph89%30.45 "Hg7 mi
7:52 AM30 °FLight freezing rain. Overcast.14 mph89%30.42 "Hg10 mi
6:52 AM30 °FLight freezing rain. Overcast.16 mph89%30.44 "Hg9 mi
5:52 AM31 °FLight snow. Overcast.16 mph89%30.42 "Hg10 mi
4:52 AM31 °FOvercast.13 mph89%30.38 "Hg10 mi
3:52 AM31 °FOvercast.18 mph92%30.37 "Hg10 mi
2:52 AM32 °FOvercast.20 mph88%30.37 "Hg10 mi
1:59 AM32 °FOvercast.17 mph88%30.33 "Hg10 mi
12:52 AM32 °FLight snow. Overcast.15 mph92%30.34 "Hg10 mi
11:52 PM
Thu, Nov 26
33 °FLight rain. Overcast.17 mph92%30.32 "Hg10 mi
10:52 PM33 °FRain. Fog.14 mph92%30.29 "Hg6 mi
9:52 PM33 °FLight rain. Mostly cloudy.12 mph92%30.28 "Hg10 mi
8:52 PM34 °FRain. Fog.10 mph92%30.27 "Hg6 mi
7:52 PM34 °FRain. Fog.21 mph97%30.27 "Hg3 mi
6:52 PM35 °FRain. Fog.16 mph92%30.25 "Hg4 mi
5:52 PM36 °FLight rain. Mostly cloudy.10 mph92%30.22 "Hg10 mi
4:52 PM36 °FLight rain. Overcast.10 mph92%30.21 "Hg8 mi
3:52 PM37 °FLight rain. Fog.16 mph93%30.19 "Hg5 mi
Weather by CustomWeather, © 2015

See weather overviewHow to use our weather pages